ニオワイズ彗星

C/2020 P1 ( NEOWISE )

English version
Home page
Updated on May 26, 2021

---------------------------------------------------------------------

・ プロフィール

発見日 2020年8月2日
発見光度 19等
発見者 Near-Earth Object Wide-field Infrared Survey Explorer

・ 写真集

・ 軌道要素

Epoch 2020 Nov. 7.0 TT = JDT 2459160.5
T 2020 Oct. 20.17901 TT                                 Rudenko
q   0.3421784            (2000.0)            P               Q
z  -0.0008877      Peri.    8.89578     +0.49927226     -0.65322423
 +/-0.0000189      Node    53.53870     +0.74504410     -0.01170837
e   1.0003038      Incl.   45.05399     +0.44230814     +0.75707399
From 135 observations 2020 Aug. 2-Dec. 9, mean residual 1".0.

・ 星図

・ 光度変化

        m1 = 14.0 + 5 logΔ + 10.0 log r(t + 8)  [  ,-8]  (              〜2020年10月12日)
        m1 = 15.0 + 5 logΔ + 12.0 log r(t + 8)  [-8,  ]  (2020年10月12日〜              )

---------------------------------------------------------------------

軌道要素はM.P.E.C. 2021-B143に掲載されたものです。
星図はステラナビゲータ Ver.10 (アストロアーツ) で作成したものです。
光度グラフはComet for Windowsで作成したものです。

---------------------------------------------------------------------

Copyright(C) Seiichi Yoshida (comet@aerith.net). All rights reserved.